| time (UTC) | temp F | wind direction | speed MPH | gust MPH | rain 1hr in | rain 24hr in | rain mn in | humidity % | barometer mb |
| 20260905223053 | 70 | 0 | 0.0 | 2.0 | 0.00 | 0.00 | 0.00 | 79 | 1002.8 |
| 20260905221557 | 70 | 0 | 0.0 | 2.0 | 0.00 | 0.00 | 0.00 | 77 | 1002.6 |
| 20260905220057 | 71 | 343 | 0.0 | 1.0 | 0.00 | 0.00 | 0.00 | 77 | 1002.5 |
| 20260905214600 | 72 | 0 | 0.0 | 3.0 | 0.00 | 0.00 | 0.00 | 75 | 1002.6 |
| 20260905213105 | 72 | 0 | 0.0 | 0.0 | 0.00 | 0.00 | 0.00 | 76 | 1002.3 |
| 20260905211603 | 73 | 0 | 0.0 | 3.0 | 0.00 | 0.00 | 0.00 | 75 | 1002.2 |
| 20260905210104 | 73 | 262 | 0.0 | 4.0 | 0.00 | 0.00 | 0.00 | 71 | 1002.1 |
| 20260905204607 | 74 | 0 | 0.0 | 4.0 | 0.00 | 0.00 | 0.00 | 73 | 1002.0 |
| 20260905203104 | 74 | 0 | 0.0 | 2.0 | 0.00 | 0.00 | 0.00 | 71 | 1001.7 |
| 20260905201609 | 73 | 0 | 0.0 | 3.0 | 0.00 | 0.00 | 0.00 | 71 | 1001.8 |
| 20260905194558 | 74 | 0 | 0.0 | 1.0 | 0.00 | 0.00 | 0.00 | 69 | 1001.8 |
| 20260905193057 | 74 | 0 | 1.0 | 4.0 | 0.00 | 0.00 | 0.00 | 65 | 1001.8 |
| 20260905191602 | 74 | 248 | 0.0 | 3.0 | 0.00 | 0.00 | 0.00 | 69 | 1002.0 |
| 20260905190103 | 74 | 0 | 0.0 | 2.0 | 0.00 | 0.00 | 0.00 | 70 | 1001.9 |
| 20260905184612 | 74 | 0 | 0.0 | 2.0 | 0.00 | 0.00 | 0.00 | 70 | 1001.9 |
| 20260905183111 | 74 | 0 | 0.0 | 3.0 | 0.00 | 0.00 | 0.00 | 68 | 1001.9 |
| 20260905181556 | 74 | 123 | 0.0 | 2.0 | 0.00 | 0.00 | 0.00 | 69 | 1002.0 |
| 20260905180106 | 74 | 59 | 0.0 | 4.0 | 0.00 | 0.00 | 0.00 | 70 | 1002.1 |
| 20260905174559 | 74 | 37 | 1.0 | 3.0 | 0.00 | 0.00 | 0.00 | 68 | 1002.1 |
| 20260905173108 | 73 | 123 | 2.0 | 4.0 | 0.00 | 0.00 | 0.00 | 70 | 1002.1 |
| 20260905171603 | 72 | 291 | 0.0 | 3.0 | 0.00 | 0.00 | 0.00 | 72 | 1002.2 |
| 20260905170109 | 73 | 0 | 0.0 | 7.0 | 0.00 | 0.00 | 0.00 | 70 | 1002.3 |
| 20260905164608 | 73 | 0 | 1.0 | 3.0 | 0.00 | 0.00 | 0.00 | 71 | 1002.3 |
| 20260905163058 | 73 | 131 | 0.0 | 3.0 | 0.00 | 0.00 | 0.00 | 73 | 1002.4 |
| 20260905161554 | 73 | 216 | 0.0 | 3.0 | 0.00 | 0.00 | 0.00 | 71 | 1002.2 |
| 20260905160059 | 73 | 0 | 1.0 | 4.0 | 0.00 | 0.00 | 0.00 | 72 | 1002.4 |
| 20260905154559 | 72 | 0 | 0.0 | 3.0 | 0.00 | 0.00 | 0.00 | 75 | 1002.4 |
| 20260905153105 | 72 | 193 | 0.0 | 2.0 | 0.00 | 0.00 | 0.00 | 74 | 1002.4 |
| 20260905151607 | 70 | 0 | 1.0 | 3.0 | 0.00 | 0.00 | 0.00 | 76 | 1002.4 |
| 20260905150100 | 70 | 31 | 0.0 | 3.0 | 0.00 | 0.00 | 0.00 | 75 | 1002.5 |
| 20260905144558 | 70 | 139 | 0.0 | 4.0 | 0.00 | 0.00 | 0.00 | 74 | 1002.5 |
| 20260905143057 | 70 | 98 | 2.0 | 5.0 | 0.00 | 0.00 | 0.00 | 74 | 1002.3 |
| 20260905141603 | 69 | 154 | 1.0 | 5.0 | 0.00 | 0.00 | 0.00 | 77 | 1002.3 |
| 20260905140127 | 68 | 297 | 1.0 | 4.0 | 0.00 | 0.00 | 0.00 | 78 | 1002.3 |
| 20260905134606 | 68 | 126 | 1.0 | 7.0 | 0.00 | 0.00 | 0.00 | 79 | 1002.2 |
| 20260905133103 | 67 | 304 | 1.0 | 8.0 | 0.00 | 0.00 | 0.00 | 80 | 1002.1 |
| 20260905131611 | 65 | 288 | 0.0 | 6.0 | 0.00 | 0.00 | 0.00 | 83 | 1002.6 |
| 20260905130101 | 64 | 125 | 1.0 | 4.0 | 0.00 | 0.00 | 0.00 | 87 | 1002.5 |
| 20260905124606 | 63 | 0 | 0.0 | 0.0 | 0.00 | 0.00 | 0.00 | 88 | 1002.7 |
| 20260905123106 | 63 | 0 | 0.0 | 0.0 | 0.00 | 0.00 | 0.00 | 87 | 1002.6 |
| 20260905121602 | 63 | 0 | 0.0 | 0.0 | 0.00 | 0.00 | 0.00 | 86 | 1002.7 |
| 20260905120053 | 63 | 0 | 0.0 | 0.0 | 0.00 | 0.00 | 0.00 | 86 | 1002.7 |
| 20260905114557 | 64 | 0 | 0.0 | 0.0 | 0.00 | 0.00 | 0.00 | 86 | 1002.5 |
| 20260905113108 | 64 | 0 | 0.0 | 3.0 | 0.00 | 0.00 | 0.00 | 85 | 1002.3 |
| 20260905111555 | 63 | 0 | 0.0 | 2.0 | 0.00 | 0.00 | 0.00 | 82 | 1002.0 |
| 20260905110054 | 63 | 307 | 1.0 | 3.0 | 0.00 | 0.00 | 0.00 | 82 | 1001.9 |
| 20260905104613 | 64 | 0 | 1.0 | 3.0 | 0.00 | 0.00 | 0.00 | 81 | 1001.7 |
| 20260905103055 | 64 | 0 | 0.0 | 3.0 | 0.00 | 0.00 | 0.00 | 81 | 1001.4 |
| 20260905101603 | 63 | 315 | 1.0 | 4.0 | 0.00 | 0.00 | 0.00 | 83 | 1001.4 |
| 20260905100117 | 63 | 0 | 1.0 | 3.0 | 0.00 | 0.00 | 0.00 | 85 | 1001.2 |
| 20260905094557 | 62 | 0 | 0.0 | 0.0 | 0.00 | 0.00 | 0.00 | 85 | 1001.3 |
| 20260905093103 | 62 | 0 | 0.0 | 2.0 | 0.00 | 0.00 | 0.00 | 85 | 1001.4 |
| 20260905091602 | 62 | 0 | 1.0 | 4.0 | 0.00 | 0.00 | 0.00 | 85 | 1001.4 |
| 20260905090131 | 62 | 0 | 0.0 | 1.0 | 0.00 | 0.00 | 0.00 | 84 | 1001.4 |
| 20260905084613 | 63 | 0 | 0.0 | 2.0 | 0.00 | 0.01 | 0.00 | 83 | 1001.5 |
| 20260905083056 | 63 | 0 | 0.0 | 2.0 | 0.00 | 0.01 | 0.00 | 81 | 1001.4 |
| 20260905081552 | 64 | 24 | 1.0 | 4.0 | 0.00 | 0.01 | 0.00 | 79 | 1001.1 |
| 20260905080059 | 66 | 0 | 0.0 | 3.0 | 0.00 | 0.01 | 0.00 | 77 | 1001.4 |
| 20260905074553 | 66 | 0 | 2.0 | 8.0 | 0.00 | 0.07 | 0.00 | 75 | 1001.3 |
| 20260905073055 | 67 | 215 | 3.0 | 8.0 | 0.00 | 0.07 | 0.00 | 74 | 1001.4 |
| 20260905071553 | 67 | 85 | 1.0 | 10.0 | 0.00 | 0.07 | 0.00 | 74 | 1001.4 |
| 20260905070058 | 67 | 4 | 3.0 | 9.0 | 0.00 | 0.07 | 0.00 | 74 | 1001.7 |
| 20260905064555 | 67 | 316 | 3.0 | 9.0 | 0.00 | 0.23 | 0.00 | 74 | 1001.8 |
| 20260905063057 | 67 | 309 | 3.0 | 7.0 | 0.00 | 0.23 | 0.00 | 74 | 1001.8 |
| 20260905061555 | 66 | 339 | 2.0 | 9.0 | 0.00 | 0.23 | 0.00 | 75 | 1001.9 |
| 20260905054555 | 65 | 0 | 1.0 | 5.0 | 0.00 | 0.24 | 0.00 | 78 | 1002.2 |
| 20260905053105 | 65 | 0 | 0.0 | 3.0 | 0.00 | 0.24 | 0.00 | 79 | 1002.3 |
| 20260905051559 | 65 | 0 | 0.0 | 5.0 | 0.00 | 0.24 | 0.00 | 79 | 1002.5 |
| 20260905050059 | 65 | 0 | 1.0 | 4.0 | 0.00 | 0.24 | 0.00 | 82 | 1002.6 |
| 20260905044603 | 65 | 114 | 1.0 | 5.0 | 0.00 | 0.24 | 0.00 | 82 | 1002.5 |
| 20260905043102 | 65 | 0 | 0.0 | 0.0 | 0.00 | 0.24 | 0.00 | 83 | 1002.5 |
| 20260905041559 | 65 | 0 | 0.0 | 0.0 | 0.00 | 0.24 | 0.00 | 83 | 1002.4 |
| 20260905040056 | 65 | 0 | 0.0 | 0.0 | 0.00 | 0.24 | 0.00 | 82 | 1002.5 |
| 20260905034616 | 66 | 0 | 0.0 | 0.0 | 0.00 | 0.24 | 0.24 | 83 | 1002.4 |
| 20260905033112 | 66 | 0 | 0.0 | 0.0 | 0.00 | 0.24 | 0.24 | 83 | 1002.6 |
| 20260905031604 | 66 | 0 | 0.0 | 0.0 | 0.00 | 0.24 | 0.24 | 83 | 1002.4 |
| 20260905030054 | 66 | 0 | 0.0 | 2.0 | 0.00 | 0.24 | 0.24 | 83 | 1002.3 |
| 20260905024603 | 66 | 0 | 0.0 | 0.0 | 0.00 | 0.24 | 0.24 | 82 | 1002.5 |
| 20260905023058 | 66 | 0 | 0.0 | 2.0 | 0.00 | 0.24 | 0.24 | 82 | 1002.5 |
| 20260905021556 | 66 | 0 | 0.0 | 2.0 | 0.00 | 0.24 | 0.24 | 81 | 1002.5 |
| 20260905020056 | 67 | 0 | 0.0 | 3.0 | 0.00 | 0.24 | 0.24 | 80 | 1002.6 |
| 20260905014615 | 67 | 3 | 0.0 | 5.0 | 0.00 | 0.24 | 0.24 | 79 | 1002.6 |
| 20260905013119 | 68 | 0 | 0.0 | 4.0 | 0.00 | 0.24 | 0.24 | 79 | 1002.7 |
| 20260905011559 | 68 | 29 | 0.0 | 5.0 | 0.00 | 0.24 | 0.24 | 78 | 1002.9 |
| 20260905010107 | 69 | 345 | 0.0 | 3.0 | 0.00 | 0.24 | 0.24 | 77 | 1002.7 |
| 20260905004656 | 70 | 334 | 0.0 | 5.0 | 0.00 | 0.24 | 0.24 | 76 | 1002.6 |
| 20260905003059 | 69 | 356 | 0.0 | 3.0 | 0.00 | 0.24 | 0.24 | 78 | 1002.7 |
| 20260905001605 | 69 | 0 | 0.0 | 5.0 | 0.00 | 0.24 | 0.24 | 79 | 1002.5 |
| 20260905000105 | 69 | 0 | 0.0 | 1.0 | 0.00 | 0.24 | 0.24 | 81 | 1002.2 |
| 20260904234603 | 70 | 0 | 0.0 | 3.0 | 0.00 | 0.24 | 0.24 | 80 | 1001.9 |
| 20260904233104 | 70 | 0 | 0.0 | 0.0 | 0.00 | 0.24 | 0.24 | 80 | 1002.1 |
| 20260904231601 | 71 | 0 | 0.0 | 1.0 | 0.00 | 0.24 | 0.24 | 78 | 1001.9 |
| 20260904230110 | 71 | 0 | 0.0 | 1.0 | 0.00 | 0.24 | 0.24 | 78 | 1002.0 |
| 20260904224559 | 72 | 0 | 0.0 | 2.0 | 0.00 | 0.24 | 0.24 | 76 | 1001.9 |